| time (UTC) | temp F | wind direction | speed knots | gust knots | rain 1hr in | rain 24hr in | rain mn in | humidity % | barometer mb |
| 20260906131537 | 80 | 11 | 8.7 | 8.7 | 0.00 | 0.00 | 0.00 | 91 | 1013.4 |
| 20260906131032 | 80 | 20 | 5.2 | 7.8 | 0.00 | 0.00 | 0.00 | 91 | 1013.2 |
| 20260906130532 | 79 | 17 | 4.3 | 7.8 | 0.00 | 0.00 | 0.00 | 92 | 1013.6 |
| 20260906130027 | 79 | 14 | 6.1 | 11.3 | 0.00 | 0.00 | 0.00 | 93 | 1013.3 |
| 20260906125525 | 79 | 15 | 3.5 | 9.6 | 0.00 | 0.00 | 0.00 | 93 | 1013.2 |
| 20260906125025 | 79 | 11 | 5.2 | 10.4 | 0.00 | 0.00 | 0.00 | 93 | 1013.2 |
| 20260906124520 | 78 | 359 | 7.0 | 7.0 | 0.00 | 0.00 | 0.00 | 94 | 1013.2 |
| 20260906124015 | 78 | 11 | 5.2 | 8.7 | 0.00 | 0.00 | 0.00 | 94 | 1013.2 |
| 20260906123514 | 78 | 12 | 6.1 | 7.8 | 0.00 | 0.00 | 0.00 | 94 | 1013.1 |
| 20260906123009 | 78 | 9 | 6.1 | 7.8 | 0.00 | 0.00 | 0.00 | 95 | 1012.9 |
| 20260906122503 | 77 | 13 | 5.2 | 7.0 | 0.00 | 0.00 | 0.00 | 95 | 1012.8 |
| 20260906121959 | 77 | 10 | 5.2 | 7.0 | 0.00 | 0.00 | 0.00 | 95 | 1012.7 |
| 20260906121455 | 77 | 8 | 5.2 | 7.8 | 0.00 | 0.00 | 0.00 | 95 | 1012.8 |
| 20260906120952 | 77 | 12 | 5.2 | 5.2 | 0.00 | 0.00 | 0.00 | 95 | 1012.9 |
| 20260906120447 | 77 | 10 | 5.2 | 7.0 | 0.00 | 0.00 | 0.00 | 95 | 1012.7 |
| 20260906115943 | 77 | 8 | 5.2 | 7.0 | 0.00 | 0.00 | 0.00 | 95 | 1012.6 |
| 20260906115438 | 76 | 8 | 5.2 | 6.1 | 0.00 | 0.00 | 0.00 | 95 | 1012.5 |
| 20260906114939 | 76 | 9 | 5.2 | 6.1 | 0.00 | 0.00 | 0.00 | 95 | 1012.5 |
| 20260906114438 | 76 | 13 | 4.3 | 5.2 | 0.00 | 0.00 | 0.00 | 95 | 1012.3 |
| 20260906113935 | 76 | 5 | 4.3 | 5.2 | 0.00 | 0.00 | 0.00 | 95 | 1012.3 |
| 20260906113433 | 76 | 12 | 4.3 | 6.1 | 0.00 | 0.00 | 0.00 | 94 | 1012.2 |
| 20260906112929 | 76 | 2 | 5.2 | 5.2 | 0.00 | 0.00 | 0.00 | 94 | 1012.3 |
| 20260906112424 | 76 | 1 | 4.3 | 5.2 | 0.00 | 0.00 | 0.00 | 95 | 1012.2 |
| 20260906111920 | 75 | 3 | 5.2 | 5.2 | 0.00 | 0.00 | 0.00 | 95 | 1012.1 |
| 20260906111419 | 75 | 8 | 3.5 | 3.5 | 0.00 | 0.00 | 0.00 | 95 | 1012.0 |
| 20260906110914 | 76 | 358 | 1.7 | 1.7 | 0.00 | 0.00 | 0.00 | 95 | 1012.1 |
| 20260906110409 | 76 | 334 | 1.7 | 1.7 | 0.00 | 0.00 | 0.00 | 94 | 1012.1 |
| 20260906105909 | 76 | 335 | 2.6 | 2.6 | 0.00 | 0.00 | 0.00 | 94 | 1012.0 |
| 20260906105404 | 76 | 332 | 2.6 | 2.6 | 0.00 | 0.00 | 0.00 | 94 | 1011.9 |
| 20260906104900 | 75 | 320 | 2.6 | 2.6 | 0.00 | 0.00 | 0.00 | 95 | 1011.9 |
| 20260906104358 | 75 | 345 | 0.0 | 0.9 | 0.00 | 0.00 | 0.00 | 95 | 1011.7 |
| 20260906103857 | 75 | 304 | 0.0 | 0.0 | 0.00 | 0.00 | 0.00 | 95 | 1011.8 |
| 20260906103356 | 75 | 304 | 0.0 | 0.0 | 0.00 | 0.00 | 0.00 | 95 | 1011.8 |
| 20260906102852 | 75 | 333 | 0.0 | 0.0 | 0.00 | 0.00 | 0.00 | 95 | 1011.8 |
| 20260906102351 | 75 | 15 | 0.0 | 0.0 | 0.00 | 0.00 | 0.00 | 95 | 1011.6 |
| 20260906101846 | 75 | 309 | 0.0 | 0.0 | 0.00 | 0.00 | 0.00 | 95 | 1011.7 |
| 20260906101341 | 75 | 309 | 0.0 | 0.0 | 0.00 | 0.00 | 0.00 | 95 | 1011.7 |
| 20260906100837 | 75 | 297 | 0.0 | 0.0 | 0.00 | 0.00 | 0.00 | 95 | 1011.6 |
| 20260906100335 | 75 | 37 | 0.0 | 0.0 | 0.00 | 0.00 | 0.00 | 96 | 1011.4 |
| 20260906095831 | 75 | 37 | 0.0 | 0.0 | 0.00 | 0.00 | 0.00 | 96 | 1011.5 |
| 20260906095326 | 75 | 345 | 0.0 | 0.0 | 0.00 | 0.00 | 0.00 | 96 | 1011.4 |
| 20260906094826 | 75 | 32 | 0.0 | 0.9 | 0.00 | 0.00 | 0.00 | 95 | 1011.5 |
| 20260906094321 | 75 | 15 | 0.9 | 0.9 | 0.00 | 0.00 | 0.00 | 95 | 1011.4 |
| 20260906093817 | 75 | 333 | 0.0 | 0.0 | 0.00 | 0.00 | 0.00 | 95 | 1011.2 |
| 20260906093313 | 75 | 0 | 0.0 | 0.9 | 0.00 | 0.00 | 0.00 | 94 | 1011.1 |
| 20260906092808 | 76 | 329 | 0.0 | 0.0 | 0.00 | 0.00 | 0.00 | 94 | 1011.0 |
| 20260906092308 | 76 | 160 | 0.0 | 0.9 | 0.00 | 0.00 | 0.00 | 93 | 1011.4 |
| 20260906091803 | 76 | 168 | 0.9 | 0.9 | 0.00 | 0.00 | 0.00 | 93 | 1011.3 |
| 20260906091259 | 76 | 169 | 0.0 | 1.7 | 0.00 | 0.00 | 0.00 | 93 | 1011.2 |
| 20260906090756 | 76 | 322 | 0.0 | 0.0 | 0.00 | 0.00 | 0.00 | 93 | 1010.8 |
| 20260906090255 | 76 | 322 | 0.0 | 0.0 | 0.00 | 0.00 | 0.00 | 93 | 1011.0 |
| 20260906085754 | 76 | 322 | 0.0 | 0.0 | 0.00 | 0.00 | 0.00 | 93 | 1011.1 |
| 20260906085253 | 76 | 322 | 0.0 | 0.0 | 0.00 | 0.00 | 0.00 | 93 | 1010.9 |
| 20260906084749 | 76 | 322 | 0.0 | 0.0 | 0.00 | 0.00 | 0.00 | 92 | 1010.8 |
| 20260906084248 | 76 | 322 | 0.0 | 0.0 | 0.00 | 0.00 | 0.00 | 92 | 1011.0 |
| 20260906083743 | 76 | 322 | 0.0 | 0.0 | 0.00 | 0.00 | 0.00 | 92 | 1011.1 |
| 20260906083239 | 76 | 336 | 0.0 | 0.0 | 0.00 | 0.00 | 0.00 | 92 | 1011.1 |
| 20260906082733 | 77 | 329 | 0.0 | 0.0 | 0.00 | 0.00 | 0.00 | 91 | 1011.2 |
| 20260906082228 | 77 | 309 | 0.0 | 0.0 | 0.00 | 0.00 | 0.00 | 91 | 1011.0 |
| 20260906081725 | 77 | 333 | 0.0 | 0.0 | 0.00 | 0.00 | 0.00 | 91 | 1011.2 |
| 20260906081219 | 77 | 321 | 0.0 | 0.0 | 0.00 | 0.00 | 0.00 | 90 | 1011.2 |
| 20260906080716 | 77 | 322 | 0.0 | 0.9 | 0.00 | 0.00 | 0.00 | 90 | 1011.2 |
| 20260906080212 | 77 | 321 | 0.9 | 1.7 | 0.00 | 0.00 | 0.00 | 90 | 1011.2 |
| 20260906075712 | 77 | 329 | 0.9 | 0.9 | 0.00 | 0.00 | 0.00 | 89 | 1011.1 |
| 20260906075206 | 77 | 315 | 0.0 | 0.0 | 0.00 | 0.00 | 0.00 | 90 | 1011.1 |
| 20260906074701 | 77 | 6 | 0.0 | 0.0 | 0.00 | 0.00 | 0.00 | 89 | 1011.0 |
| 20260906074201 | 78 | 333 | 0.0 | 0.0 | 0.00 | 0.00 | 0.00 | 89 | 1011.2 |
| 20260906073655 | 78 | 333 | 0.0 | 0.0 | 0.00 | 0.00 | 0.00 | 89 | 1010.9 |
| 20260906073151 | 78 | 229 | 0.0 | 0.0 | 0.00 | 0.00 | 0.00 | 89 | 1010.8 |
| 20260906072646 | 78 | 309 | 0.0 | 0.0 | 0.00 | 0.00 | 0.00 | 88 | 1010.9 |
| 20260906072142 | 78 | 309 | 0.0 | 0.0 | 0.00 | 0.00 | 0.00 | 88 | 1010.8 |
| 20260906071638 | 78 | 315 | 0.0 | 0.9 | 0.00 | 0.00 | 0.00 | 87 | 1011.0 |
| 20260906071138 | 78 | 337 | 0.0 | 0.9 | 0.00 | 0.00 | 0.00 | 88 | 1011.2 |
| 20260906070635 | 78 | 195 | 0.0 | 0.9 | 0.00 | 0.00 | 0.00 | 87 | 1010.9 |
| 20260906070130 | 79 | 173 | 0.0 | 0.9 | 0.00 | 0.00 | 0.00 | 86 | 1010.9 |
| 20260906065630 | 79 | 201 | 0.9 | 0.9 | 0.00 | 0.00 | 0.00 | 86 | 1011.1 |
| 20260906065125 | 79 | 322 | 0.0 | 0.0 | 0.00 | 0.00 | 0.00 | 85 | 1011.1 |
| 20260906064620 | 79 | 343 | 0.0 | 1.7 | 0.00 | 0.00 | 0.00 | 85 | 1011.2 |
| 20260906064115 | 80 | 337 | 0.9 | 1.7 | 0.00 | 0.00 | 0.00 | 84 | 1011.3 |
| 20260906063616 | 79 | 347 | 1.7 | 2.6 | 0.00 | 0.00 | 0.00 | 83 | 1011.0 |
| 20260906063112 | 79 | 349 | 1.7 | 1.7 | 0.00 | 0.00 | 0.00 | 84 | 1011.3 |
| 20260906062608 | 79 | 349 | 0.9 | 1.7 | 0.00 | 0.00 | 0.00 | 85 | 1011.2 |
| 20260906062106 | 79 | 334 | 0.9 | 0.9 | 0.00 | 0.00 | 0.00 | 87 | 1011.5 |
| 20260906061603 | 79 | 309 | 0.0 | 1.7 | 0.00 | 0.00 | 0.00 | 87 | 1011.2 |
| 20260906061102 | 78 | 324 | 0.9 | 1.7 | 0.00 | 0.00 | 0.00 | 87 | 1011.3 |
| 20260906060559 | 78 | 322 | 0.0 | 0.9 | 0.00 | 0.00 | 0.00 | 89 | 1011.5 |
| 20260906060055 | 78 | 322 | 0.0 | 0.9 | 0.00 | 0.00 | 0.00 | 89 | 1011.4 |
| 20260906055551 | 78 | 333 | 0.0 | 0.0 | 0.00 | 0.00 | 0.00 | 89 | 1011.4 |
| 20260906055046 | 78 | 322 | 0.0 | 0.0 | 0.00 | 0.00 | 0.00 | 89 | 1011.4 |
| 20260906054541 | 78 | 333 | 0.0 | 0.0 | 0.00 | 0.00 | 0.00 | 89 | 1011.4 |
| 20260906054036 | 78 | 333 | 0.0 | 0.0 | 0.00 | 0.00 | 0.00 | 89 | 1011.4 |
| 20260906053533 | 78 | 333 | 0.0 | 0.0 | 0.00 | 0.00 | 0.00 | 88 | 1011.5 |
| 20260906053028 | 78 | 315 | 0.0 | 0.0 | 0.00 | 0.00 | 0.00 | 88 | 1011.8 |
| 20260906052523 | 79 | 242 | 0.0 | 0.0 | 0.00 | 0.00 | 0.00 | 88 | 1011.6 |
| 20260906052021 | 79 | 333 | 0.0 | 1.7 | 0.00 | 0.00 | 0.00 | 87 | 1011.7 |
| 20260906051516 | 79 | 311 | 0.0 | 0.9 | 0.00 | 0.00 | 0.00 | 86 | 1011.6 |
| 20260906051011 | 79 | 333 | 0.0 | 0.0 | 0.00 | 0.00 | 0.00 | 86 | 1011.7 |
| 20260906050511 | 80 | 25 | 0.0 | 0.0 | 0.00 | 0.00 | 0.00 | 84 | 1011.6 |
| 20260906050006 | 80 | 26 | 0.0 | 0.9 | 0.00 | 0.00 | 0.00 | 84 | 1011.6 |
| 20260906045504 | 80 | 333 | 0.0 | 0.0 | 0.00 | 0.00 | 0.00 | 83 | 1011.6 |
| 20260906045000 | 80 | 336 | 0.0 | 0.0 | 0.00 | 0.00 | 0.00 | 83 | 1011.5 |
| 20260906044455 | 80 | 324 | 0.9 | 1.7 | 0.00 | 0.00 | 0.00 | 82 | 1011.5 |
| 20260906043951 | 80 | 309 | 0.0 | 0.0 | 0.00 | 0.00 | 0.00 | 83 | 1011.4 |
| 20260906043447 | 80 | 11 | 0.0 | 0.0 | 0.00 | 0.00 | 0.00 | 84 | 1011.5 |
| 20260906042942 | 80 | 11 | 0.0 | 0.0 | 0.00 | 0.00 | 0.00 | 85 | 1011.4 |
| 20260906042441 | 80 | 11 | 0.0 | 0.0 | 0.00 | 0.00 | 0.00 | 87 | 1011.3 |
| 20260906041936 | 80 | 5 | 0.0 | 0.9 | 0.00 | 0.00 | 0.00 | 87 | 1011.5 |
| 20260906041433 | 79 | 0 | 1.7 | 1.7 | 0.00 | 0.00 | 0.00 | 88 | 1011.4 |
| 20260906040932 | 80 | 322 | 0.0 | 0.0 | 0.00 | 0.00 | 0.00 | 88 | 1011.3 |
| 20260906040427 | 80 | 357 | 0.9 | 1.7 | 0.00 | 0.00 | 0.00 | 87 | 1011.3 |
| 20260906035922 | 80 | 28 | 0.0 | 3.5 | 0.00 | 0.00 | 0.00 | 87 | 1011.5 |
| 20260906035418 | 80 | 22 | 0.0 | 0.9 | 0.00 | 0.00 | 0.00 | 87 | 1011.3 |
| 20260906034913 | 80 | 0 | 0.0 | 0.9 | 0.00 | 0.00 | 0.00 | 87 | 1011.3 |
| 20260906034413 | 80 | 205 | 0.0 | 1.7 | 0.00 | 0.00 | 0.00 | 87 | 1011.3 |
| 20260906033909 | 80 | 20 | 2.6 | 2.6 | 0.00 | 0.00 | 0.00 | 86 | 1011.3 |
| 20260906033408 | 80 | 5 | 3.5 | 4.3 | 0.00 | 0.00 | 0.00 | 86 | 1011.3 |
| 20260906032904 | 80 | 359 | 0.9 | 2.6 | 0.00 | 0.00 | 0.00 | 86 | 1011.1 |
| 20260906032401 | 81 | 12 | 5.2 | 6.1 | 0.00 | 0.00 | 0.00 | 83 | 1011.1 |
| 20260906031855 | 81 | 269 | 0.0 | 0.0 | 0.00 | 0.00 | 0.00 | 83 | 1011.0 |
| 20260906031351 | 81 | 269 | 0.0 | 0.0 | 0.00 | 0.00 | 0.00 | 84 | 1011.0 |
| 20260906030846 | 81 | 269 | 0.0 | 0.0 | 0.00 | 0.00 | 0.00 | 83 | 1011.1 |
| 20260906030341 | 81 | 269 | 0.0 | 0.0 | 0.00 | 0.00 | 0.00 | 82 | 1011.2 |
| 20260906025840 | 81 | 297 | 0.0 | 0.0 | 0.00 | 0.00 | 0.00 | 81 | 1010.7 |
| 20260906025335 | 82 | 322 | 0.0 | 0.0 | 0.00 | 0.00 | 0.00 | 81 | 1010.9 |
| 20260906024834 | 82 | 322 | 0.0 | 1.7 | 0.00 | 0.00 | 0.00 | 80 | 1011.0 |
| 20260906024333 | 83 | 309 | 0.0 | 1.7 | 0.00 | 0.00 | 0.00 | 79 | 1010.9 |
| 20260906023829 | 83 | 304 | 0.0 | 0.9 | 0.00 | 0.00 | 0.00 | 79 | 1010.8 |
| 20260906023324 | 82 | 319 | 1.7 | 1.7 | 0.00 | 0.00 | 0.00 | 79 | 1011.0 |
| 20260906022820 | 82 | 332 | 0.0 | 1.7 | 0.00 | 0.00 | 0.00 | 81 | 1011.0 |
| 20260906022315 | 82 | 338 | 1.7 | 1.7 | 0.00 | 0.00 | 0.00 | 81 | 1010.6 |
| 20260906021810 | 82 | 346 | 1.7 | 1.7 | 0.00 | 0.00 | 0.00 | 81 | 1010.6 |
| 20260906021310 | 82 | 355 | 2.6 | 2.6 | 0.00 | 0.00 | 0.00 | 82 | 1010.8 |
| 20260906020810 | 82 | 1 | 0.9 | 1.7 | 0.00 | 0.00 | 0.00 | 82 | 1010.7 |
| 20260906020310 | 82 | 0 | 0.9 | 1.7 | 0.00 | 0.00 | 0.00 | 80 | 1010.5 |
| 20260906015809 | 83 | 50 | 0.0 | 0.0 | 0.00 | 0.00 | 0.00 | 80 | 1010.7 |
| 20260906015309 | 83 | 202 | 0.0 | 0.0 | 0.00 | 0.00 | 0.00 | 80 | 1010.5 |
| 20260906014809 | 82 | 242 | 0.0 | 0.0 | 0.00 | 0.00 | 0.00 | 81 | 1010.2 |
| 20260906014304 | 82 | 242 | 0.0 | 0.9 | 0.00 | 0.00 | 0.00 | 81 | 1010.5 |
| 20260906013801 | 82 | 322 | 0.0 | 0.0 | 0.00 | 0.00 | 0.00 | 81 | 1010.2 |
| 20260906013300 | 83 | 37 | 0.0 | 0.0 | 0.00 | 0.00 | 0.00 | 81 | 1010.2 |
| 20260906012756 | 83 | 22 | 0.0 | 0.9 | 0.00 | 0.00 | 0.00 | 79 | 1010.4 |
| 20260906012251 | 84 | 349 | 0.0 | 0.9 | 0.00 | 0.00 | 0.00 | 76 | 1010.2 |
| 20260906011746 | 85 | 333 | 0.0 | 0.0 | 0.00 | 0.00 | 0.00 | 74 | 1010.2 |
| 20260906011246 | 85 | 333 | 0.0 | 0.0 | 0.00 | 0.00 | 0.00 | 73 | 1010.2 |
| 20260906010742 | 86 | 333 | 0.0 | 0.0 | 0.00 | 0.00 | 0.00 | 72 | 1010.2 |
| 20260906010238 | 86 | 333 | 0.0 | 0.9 | 0.00 | 0.00 | 0.00 | 71 | 1010.1 |
| 20260906005733 | 87 | 355 | 0.9 | 0.9 | 0.00 | 0.00 | 0.00 | 70 | 1010.0 |
| 20260906005232 | 87 | 340 | 0.9 | 1.7 | 0.00 | 0.00 | 0.00 | 69 | 1010.0 |
| 20260906004731 | 87 | 334 | 0.9 | 1.7 | 0.00 | 0.00 | 0.00 | 69 | 1010.0 |
| 20260906004226 | 87 | 320 | 1.7 | 1.7 | 0.00 | 0.00 | 0.00 | 70 | 1009.8 |
| 20260906003721 | 87 | 318 | 1.7 | 1.7 | 0.00 | 0.00 | 0.00 | 69 | 1009.8 |
| 20260906003217 | 87 | 325 | 0.0 | 0.9 | 0.00 | 0.00 | 0.00 | 69 | 1010.0 |
| 20260906002717 | 88 | 330 | 1.7 | 2.6 | 0.00 | 0.00 | 0.00 | 68 | 1009.9 |
| 20260906002212 | 88 | 11 | 2.6 | 3.5 | 0.00 | 0.00 | 0.00 | 68 | 1010.0 |
| 20260906001707 | 88 | 8 | 1.7 | 2.6 | 0.00 | 0.00 | 0.00 | 69 | 1010.1 |
| 20260906001207 | 88 | 346 | 1.7 | 1.7 | 0.00 | 0.00 | 0.00 | 68 | 1010.2 |
| 20260906000703 | 89 | 353 | 1.7 | 2.6 | 0.00 | 0.00 | 0.00 | 67 | 1010.2 |
| 20260906000158 | 89 | 337 | 1.7 | 2.6 | 0.00 | 0.00 | 0.00 | 65 | 1010.3 |
| 20260905235656 | 89 | 337 | 2.6 | 2.6 | 0.00 | 0.00 | 0.00 | 65 | 1010.3 |
| 20260905235152 | 89 | 341 | 1.7 | 3.5 | 0.00 | 0.00 | 0.00 | 64 | 1010.5 |
| 20260905234647 | 89 | 3 | 2.6 | 3.5 | 0.00 | 0.00 | 0.00 | 64 | 1010.4 |
| 20260905234143 | 90 | 44 | 0.0 | 1.7 | 0.00 | 0.00 | 0.00 | 66 | 1010.4 |
| 20260905233637 | 90 | 50 | 0.0 | 0.9 | 0.00 | 0.00 | 0.00 | 64 | 1010.3 |
| 20260905233136 | 91 | 35 | 0.0 | 0.0 | 0.00 | 0.00 | 0.00 | 63 | 1010.2 |
| 20260905232632 | 91 | 297 | 0.0 | 0.0 | 0.00 | 0.00 | 0.00 | 62 | 1010.4 |
| 20260905232128 | 90 | 299 | 0.0 | 0.0 | 0.00 | 0.00 | 0.00 | 62 | 1010.2 |
| 20260905231623 | 90 | 269 | 0.0 | 0.9 | 0.00 | 0.00 | 0.00 | 62 | 1010.2 |
| 20260905231119 | 90 | 283 | 0.0 | 0.0 | 0.00 | 0.00 | 0.00 | 60 | 1010.1 |
| 20260905230615 | 90 | 287 | 0.0 | 0.9 | 0.00 | 0.00 | 0.00 | 59 | 1010.1 |
| 20260905230113 | 90 | 284 | 0.0 | 0.0 | 0.00 | 0.00 | 0.00 | 58 | 1010.0 |
| 20260905225612 | 90 | 242 | 0.0 | 0.9 | 0.00 | 0.00 | 0.00 | 59 | 1010.0 |
| 20260905225108 | 91 | 315 | 0.0 | 2.6 | 0.00 | 0.00 | 0.00 | 66 | 1010.1 |
| 20260905224607 | 91 | 316 | 3.5 | 5.2 | 0.00 | 0.00 | 0.00 | 62 | 1010.4 |
| 20260905224107 | 92 | 314 | 4.3 | 4.3 | 0.00 | 0.00 | 0.00 | 60 | 1010.2 |
| 20260905223604 | 93 | 308 | 3.5 | 4.3 | 0.00 | 0.00 | 0.00 | 64 | 1010.1 |
| 20260905223101 | 93 | 297 | 0.0 | 0.9 | 0.00 | 0.00 | 0.00 | 62 | 1009.9 |
| 20260905222600 | 93 | 326 | 0.0 | 0.9 | 0.00 | 0.00 | 0.00 | 64 | 1010.0 |
| 20260905222055 | 95 | 339 | 0.9 | 1.7 | 0.00 | 0.00 | 0.00 | 60 | 1009.9 |
| 20260905221552 | 95 | 304 | 0.0 | 0.9 | 0.00 | 0.00 | 0.00 | 58 | 1010.1 |
| 20260905221047 | 95 | 281 | 0.9 | 0.9 | 0.00 | 0.00 | 0.00 | 55 | 1009.9 |
| 20260905220543 | 96 | 300 | 0.0 | 0.9 | 0.00 | 0.00 | 0.00 | 51 | 1010.2 |
| 20260905220039 | 96 | 37 | 0.0 | 0.0 | 0.00 | 0.00 | 0.00 | 51 | 1010.3 |
| 20260905215538 | 97 | 326 | 0.0 | 0.0 | 0.00 | 0.00 | 0.00 | 50 | 1010.2 |
| 20260905215035 | 98 | 297 | 0.0 | 0.9 | 0.00 | 0.00 | 0.00 | 49 | 1010.3 |
| 20260905214530 | 99 | 7 | 0.0 | 0.0 | 0.00 | 0.00 | 0.00 | 48 | 1010.2 |
| 20260905214025 | 100 | 315 | 0.0 | 0.0 | 0.00 | 0.00 | 0.00 | 47 | 1010.3 |
| 20260905213520 | 101 | 341 | 1.7 | 1.7 | 0.00 | 0.00 | 0.00 | 51 | 1010.3 |
| 20260905213016 | 101 | 318 | 1.7 | 3.5 | 0.00 | 0.00 | 0.00 | 45 | 1010.3 |
| 20260905212511 | 103 | 246 | 0.0 | 1.7 | 0.00 | 0.00 | 0.00 | 46 | 1010.4 |
| 20260905212010 | 102 | 262 | 0.0 | 1.7 | 0.00 | 0.00 | 0.00 | 45 | 1010.3 |
| 20260905211505 | 100 | 310 | 0.0 | 0.0 | 0.00 | 0.00 | 0.00 | 51 | 1010.3 |
| 20260905211001 | 100 | 303 | 0.9 | 1.7 | 0.00 | 0.00 | 0.00 | 45 | 1010.3 |
| 20260905210457 | 100 | 135 | 0.0 | 0.9 | 0.00 | 0.00 | 0.00 | 48 | 1010.5 |
| 20260905205956 | 100 | 331 | 1.7 | 5.2 | 0.00 | 0.00 | 0.00 | 45 | 1010.4 |
| 20260905205450 | 102 | 313 | 2.6 | 2.6 | 0.00 | 0.00 | 0.00 | 46 | 1010.4 |
| 20260905204949 | 101 | 269 | 0.0 | 0.0 | 0.00 | 0.00 | 0.00 | 47 | 1010.6 |
| 20260905204445 | 101 | 52 | 0.0 | 1.7 | 0.00 | 0.00 | 0.00 | 45 | 1010.5 |
| 20260905203944 | 102 | 315 | 1.7 | 1.7 | 0.00 | 0.00 | 0.00 | 46 | 1010.7 |
| 20260905203440 | 99 | 284 | 0.9 | 0.9 | 0.00 | 0.00 | 0.00 | 50 | 1010.7 |
| 20260905202936 | 98 | 359 | 2.6 | 4.3 | 0.00 | 0.00 | 0.00 | 53 | 1010.9 |
| 20260905202431 | 99 | 9 | 1.7 | 2.6 | 0.00 | 0.00 | 0.00 | 48 | 1010.6 |
| 20260905201926 | 99 | 297 | 0.0 | 0.9 | 0.00 | 0.00 | 0.00 | 47 | 1010.8 |
| 20260905201421 | 98 | 291 | 0.0 | 2.6 | 0.00 | 0.00 | 0.00 | 52 | 1011.0 |
| 20260905200921 | 98 | 29 | 0.0 | 0.9 | 0.00 | 0.00 | 0.00 | 52 | 1011.1 |
| 20260905200417 | 98 | 230 | 0.0 | 0.9 | 0.00 | 0.00 | 0.00 | 51 | 1011.2 |
| 20260905195915 | 98 | 345 | 0.0 | 0.9 | 0.00 | 0.00 | 0.00 | 51 | 1011.2 |
| 20260905195410 | 98 | 342 | 1.7 | 1.7 | 0.00 | 0.00 | 0.00 | 50 | 1011.3 |
| 20260905194906 | 98 | 309 | 0.0 | 0.9 | 0.00 | 0.00 | 0.00 | 53 | 1011.4 |
| 20260905194406 | 97 | 244 | 0.0 | 0.9 | 0.00 | 0.00 | 0.00 | 52 | 1011.6 |
| 20260905193906 | 97 | 291 | 0.9 | 2.6 | 0.00 | 0.00 | 0.00 | 50 | 1011.7 |
| 20260905193400 | 97 | 255 | 0.0 | 0.9 | 0.00 | 0.00 | 0.00 | 50 | 1011.7 |
| 20260905192856 | 98 | 22 | 0.9 | 1.7 | 0.00 | 0.00 | 0.00 | 51 | 1011.6 |
| 20260905192351 | 98 | 285 | 0.0 | 3.5 | 0.00 | 0.00 | 0.00 | 49 | 1011.7 |
| 20260905191851 | 99 | 0 | 2.6 | 3.5 | 0.00 | 0.00 | 0.00 | 47 | 1011.9 |
| 20260905191350 | 98 | 50 | 0.0 | 4.3 | 0.00 | 0.00 | 0.00 | 51 | 1011.7 |
| 20260905190850 | 98 | 26 | 3.5 | 7.0 | 0.00 | 0.00 | 0.00 | 49 | 1011.7 |
| 20260905190348 | 98 | 11 | 3.5 | 5.2 | 0.00 | 0.00 | 0.00 | 51 | 1011.9 |
| 20260905185847 | 98 | 16 | 0.0 | 4.3 | 0.00 | 0.00 | 0.00 | 49 | 1012.0 |
| 20260905185343 | 98 | 345 | 2.6 | 4.3 | 0.00 | 0.00 | 0.00 | 50 | 1012.0 |
| 20260905184842 | 98 | 353 | 6.1 | 7.8 | 0.00 | 0.00 | 0.00 | 51 | 1012.1 |
| 20260905184341 | 98 | 355 | 2.6 | 4.3 | 0.00 | 0.00 | 0.00 | 53 | 1012.1 |
| 20260905183839 | 98 | 357 | 3.5 | 7.0 | 0.00 | 0.00 | 0.00 | 48 | 1012.3 |
| 20260905183335 | 99 | 348 | 0.9 | 2.6 | 0.00 | 0.00 | 0.00 | 49 | 1012.3 |
| 20260905182836 | 99 | 317 | 1.7 | 2.6 | 0.00 | 0.00 | 0.00 | 47 | 1012.2 |
| 20260905182335 | 98 | 251 | 1.7 | 1.7 | 0.00 | 0.00 | 0.00 | 51 | 1012.2 |
| 20260905181831 | 98 | 284 | 0.9 | 1.7 | 0.00 | 0.00 | 0.00 | 49 | 1012.5 |
| 20260905181330 | 97 | 306 | 1.7 | 2.6 | 0.00 | 0.00 | 0.00 | 48 | 1012.5 |
| 20260905180829 | 98 | 274 | 0.9 | 4.3 | 0.00 | 0.00 | 0.00 | 52 | 1012.5 |
| 20260905180325 | 98 | 251 | 0.9 | 1.7 | 0.00 | 0.00 | 0.00 | 53 | 1012.6 |
| 20260905175819 | 98 | 327 | 1.7 | 2.6 | 0.00 | 0.00 | 0.00 | 50 | 1012.5 |
| 20260905175314 | 97 | 293 | 0.9 | 2.6 | 0.00 | 0.00 | 0.00 | 54 | 1012.6 |
| 20260905174809 | 97 | 287 | 1.7 | 3.5 | 0.00 | 0.00 | 0.00 | 51 | 1012.7 |
| 20260905174305 | 97 | 237 | 0.9 | 2.6 | 0.00 | 0.00 | 0.00 | 52 | 1012.7 |
| 20260905173801 | 96 | 265 | 0.9 | 3.5 | 0.00 | 0.00 | 0.00 | 54 | 1012.9 |
| 20260905173257 | 96 | 292 | 0.9 | 2.6 | 0.00 | 0.00 | 0.00 | 51 | 1012.8 |
| 20260905172756 | 97 | 332 | 3.5 | 5.2 | 0.00 | 0.00 | 0.00 | 50 | 1012.7 |
| 20260905172254 | 97 | 232 | 0.9 | 1.7 | 0.00 | 0.00 | 0.00 | 54 | 1012.8 |
| 20260905171751 | 96 | 286 | 1.7 | 2.6 | 0.00 | 0.00 | 0.00 | 55 | 1012.9 |
| 20260905171247 | 96 | 310 | 2.6 | 3.5 | 0.00 | 0.00 | 0.00 | 55 | 1013.0 |
| 20260905170743 | 96 | 352 | 4.3 | 5.2 | 0.00 | 0.00 | 0.00 | 52 | 1012.9 |
| 20260905170239 | 96 | 288 | 0.0 | 3.5 | 0.00 | 0.00 | 0.00 | 54 | 1013.1 |
| 20260905165738 | 95 | 309 | 0.0 | 3.5 | 0.00 | 0.00 | 0.00 | 51 | 1013.3 |
| 20260905165234 | 95 | 329 | 3.5 | 5.2 | 0.00 | 0.00 | 0.00 | 55 | 1013.3 |
| 20260905164733 | 95 | 337 | 2.6 | 3.5 | 0.00 | 0.00 | 0.00 | 53 | 1013.2 |
| 20260905164228 | 95 | 333 | 4.3 | 4.3 | 0.00 | 0.00 | 0.00 | 52 | 1013.3 |
| 20260905163724 | 95 | 338 | 2.6 | 6.1 | 0.00 | 0.00 | 0.00 | 54 | 1013.3 |
| 20260905163220 | 95 | 343 | 2.6 | 4.3 | 0.00 | 0.00 | 0.00 | 54 | 1013.4 |
| 20260905162717 | 95 | 243 | 0.9 | 1.7 | 0.00 | 0.00 | 0.00 | 58 | 1013.2 |
| 20260905162216 | 94 | 217 | 0.0 | 1.7 | 0.00 | 0.00 | 0.00 | 55 | 1013.4 |
| 20260905161711 | 94 | 317 | 3.5 | 4.3 | 0.00 | 0.00 | 0.00 | 54 | 1013.5 |
| 20260905161209 | 94 | 299 | 0.9 | 2.6 | 0.00 | 0.00 | 0.00 | 56 | 1013.4 |
| 20260905160708 | 94 | 355 | 4.3 | 4.3 | 0.00 | 0.00 | 0.00 | 57 | 1013.6 |
| 20260905160207 | 94 | 304 | 0.0 | 1.7 | 0.00 | 0.00 | 0.00 | 57 | 1013.6 |
| 20260905155702 | 93 | 321 | 0.0 | 1.7 | 0.00 | 0.00 | 0.00 | 56 | 1013.7 |
| 20260905155202 | 93 | 298 | 1.7 | 1.7 | 0.00 | 0.00 | 0.00 | 58 | 1013.5 |
| 20260905154655 | 93 | 321 | 1.7 | 1.7 | 0.00 | 0.00 | 0.00 | 61 | 1013.5 |
| 20260905154151 | 92 | 315 | 3.5 | 6.1 | 0.00 | 0.00 | 0.00 | 60 | 1013.7 |
| 20260905153647 | 92 | 329 | 2.6 | 4.3 | 0.00 | 0.00 | 0.00 | 57 | 1013.8 |
| 20260905153142 | 92 | 312 | 1.7 | 2.6 | 0.00 | 0.00 | 0.00 | 61 | 1013.7 |
| 20260905152637 | 92 | 309 | 1.7 | 2.6 | 0.00 | 0.00 | 0.00 | 63 | 1013.8 |
| 20260905152132 | 92 | 283 | 0.0 | 1.7 | 0.00 | 0.00 | 0.00 | 69 | 1013.7 |
| 20260905151626 | 91 | 239 | 1.7 | 1.7 | 0.00 | 0.00 | 0.00 | 66 | 1013.8 |
| 20260905151122 | 91 | 233 | 0.0 | 1.7 | 0.00 | 0.00 | 0.00 | 67 | 1013.8 |
| 20260905150617 | 91 | 309 | 0.9 | 0.9 | 0.00 | 0.00 | 0.00 | 69 | 1013.6 |
| 20260905150115 | 90 | 0 | 1.7 | 3.5 | 0.00 | 0.00 | 0.00 | 67 | 1013.5 |
| 20260905145614 | 90 | 24 | 0.9 | 1.7 | 0.00 | 0.00 | 0.00 | 68 | 1013.7 |
| 20260905145113 | 89 | 358 | 1.7 | 3.5 | 0.00 | 0.00 | 0.00 | 70 | 1013.6 |
| 20260905144608 | 89 | 1 | 1.7 | 4.3 | 0.00 | 0.00 | 0.00 | 68 | 1013.7 |
| 20260905144108 | 88 | 319 | 1.7 | 4.3 | 0.00 | 0.00 | 0.00 | 71 | 1013.4 |
| 20260905143608 | 88 | 9 | 3.5 | 5.2 | 0.00 | 0.00 | 0.00 | 71 | 1013.7 |
| 20260905143103 | 87 | 344 | 2.6 | 3.5 | 0.00 | 0.00 | 0.00 | 74 | 1013.5 |
| 20260905142602 | 87 | 352 | 2.6 | 3.5 | 0.00 | 0.00 | 0.00 | 76 | 1013.7 |
| 20260905142056 | 86 | 351 | 3.5 | 5.2 | 0.00 | 0.00 | 0.00 | 77 | 1013.4 |
| 20260905141555 | 86 | 345 | 1.7 | 5.2 | 0.00 | 0.00 | 0.00 | 76 | 1013.7 |
| 20260905141053 | 85 | 341 | 1.7 | 4.3 | 0.00 | 0.00 | 0.00 | 78 | 1013.6 |
| 20260905140553 | 85 | 334 | 1.7 | 4.3 | 0.00 | 0.00 | 0.00 | 81 | 1013.6 |
| 20260905140051 | 84 | 354 | 3.5 | 4.3 | 0.00 | 0.00 | 0.00 | 80 | 1013.6 |
| 20260905135547 | 84 | 337 | 2.6 | 2.6 | 0.00 | 0.00 | 0.00 | 84 | 1013.6 |
| 20260905135047 | 84 | 314 | 1.7 | 3.5 | 0.00 | 0.00 | 0.00 | 82 | 1013.8 |
| 20260905134542 | 83 | 320 | 1.7 | 1.7 | 0.00 | 0.00 | 0.00 | 83 | 1013.5 |
| 20260905134041 | 83 | 313 | 1.7 | 3.5 | 0.00 | 0.00 | 0.00 | 81 | 1013.7 |
| 20260905133537 | 82 | 357 | 1.7 | 2.6 | 0.00 | 0.00 | 0.00 | 88 | 1013.5 |
| 20260905133036 | 82 | 300 | 0.0 | 1.7 | 0.00 | 0.00 | 0.00 | 90 | 1013.6 |
| 20260905132536 | 81 | 195 | 0.0 | 0.0 | 0.00 | 0.00 | 0.00 | 92 | 1013.5 |
| 20260905132031 | 80 | 49 | 0.0 | 1.7 | 0.00 | 0.00 | 0.00 | 93 | 1013.8 |